Flag for France Weather past 2 weeks in Rouen, France

Now
66 °F

Passing clouds.


Feels Like: 66 °F
Forecast: 39 / 57 °F
Wind: 9 mph from West

Location: Rouen Airport


UV Index: 3 (Moderate)

Visibility: N/A


Pressure: 30.07 "Hg

Humidity: 32%

Dew point: 36 °F

Location of RouenLocation

Historic Weather in Rouen

°F

Rouen temperature yesterday

Maximum temperature yesterday: 61 °F (at 3:30 PM)
Minimum temperature yesterday: 36 °F (at 4:30 AM)
Average temperature yesterday: 48 °F

Past Weeks' High & Low Weather Summary

 TemperatureHumidityPressure
High68 °F (Apr 7, 3:00 PM)100% (Apr 4, 7:00 AM)30.36 "Hg (Apr 4, 7:00 AM)
Low36 °F (Apr 9, 5:00 AM)30% (Apr 17, 4:00 PM)29.47 "Hg (Apr 3, 4:00 AM)
Average51 °F74%30.08 "Hg
* Reported Apr 2 5:00 PM — Apr 17 5:30 PM, Rouen, Weather by CustomWeather, © 2014

Note: Actual official high and low records may vary slightly from our data, if they occured in-between our weather recording intervals... More about our weather records

Advertising

Historic Weather Conditions — Data for Previous 24 hours

 ConditionsComfort  
Time TempWeatherWind HumidityBarometerVisibility
5:30 PM
Apr 17
66 °FClear.12 mph32%30.09 "HgN/A
5:00 PM66 °FClear.9 mph32%30.07 "HgN/A
4:30 PM68 °FClear.9 mph33%30.09 "HgN/A
4:00 PM68 °FClear.8 mph30%30.09 "HgN/A
3:30 PM66 °FClear.6 mph32%30.09 "HgN/A
3:00 PM66 °FClear.5 mph35%30.12 "HgN/A
2:30 PM64 °FClear.No wind32%30.12 "HgN/A
2:00 PM63 °FClear.3 mph37%30.15 "HgN/A
1:30 PM63 °FScattered clouds.1 mph37%30.15 "HgN/A
1:00 PM63 °FClear.6 mph42%30.15 "HgN/A
12:30 PM61 °FClear.5 mph42%30.18 "HgN/A
12:00 PM59 °FPassing clouds.5 mph45%30.18 "HgN/A
11:30 AM55 °FFog.3 mph51%30.18 "HgN/A
11:00 AM54 °FPartly sunny.3 mph51%30.21 "HgN/A
10:30 AM52 °FPartly sunny.5 mph54%30.21 "HgN/A
10:00 AM50 °FClear.8 mph54%30.18 "HgN/A
9:30 AM50 °FCool.7 mph58%30.18 "HgN/A
9:00 AM46 °FClear.6 mph62%30.18 "HgN/A
8:30 AM45 °FClear.7 mph71%30.21 "HgN/A
8:00 AM41 °FPassing clouds.2 mph66%30.21 "HgN/A
7:30 AM39 °FClear.5 mph70%30.18 "HgN/A
7:00 AM37 °FClear.6 mph75%30.21 "HgN/A
6:30 AM37 °FClear.3 mph75%30.21 "HgN/A
6:00 AM37 °FClear.7 mph75%30.21 "HgN/A
5:30 AM37 °FClear.6 mph70%30.21 "HgN/A
5:00 AM37 °FClear.6 mph70%30.21 "HgN/A
4:30 AM37 °FClear.6 mph70%30.21 "HgN/A
4:00 AM41 °FClear.3 mph66%30.24 "HgN/A
3:30 AM41 °FClear.3 mph66%30.24 "HgN/A
3:00 AM41 °FClear.3 mph66%30.24 "HgN/A
2:30 AM41 °FClear.5 mph66%30.24 "HgN/A
2:00 AM43 °FClear.3 mph61%30.24 "HgN/A
1:30 AM43 °FClear.3 mph61%30.24 "HgN/A
1:00 AM41 °FClear.6 mph66%30.24 "HgN/A
12:30 AM43 °FClear.5 mph61%30.24 "HgN/A
12:00 AM43 °FClear.6 mph66%30.24 "HgN/A
11:30 PM
Apr 16
43 °FClear.7 mph66%30.27 "HgN/A
11:00 PM45 °FClear.8 mph61%30.27 "HgN/A
10:30 PM45 °FClear.8 mph61%30.27 "HgN/A
10:00 PM45 °FClear.7 mph61%30.27 "HgN/A
9:30 PM46 °FClear.7 mph62%30.27 "HgN/A
9:00 PM48 °FPassing clouds.7 mph58%30.27 "HgN/A
8:30 PM50 °FClear.8 mph58%30.24 "HgN/A
8:00 PM55 °FClear.9 mph44%30.24 "HgN/A
7:30 PM57 °FClear.9 mph41%30.24 "HgN/A
7:00 PM59 °FClear.10 mph36%30.24 "HgN/A
6:30 PM61 °FClear.10 mph36%30.27 "HgN/A
6:00 PM61 °FClear.13 mph36%30.27 "HgN/A
Weather by CustomWeather, © 2014

See weather overview